Year,Month,Day,Hour,Minute,Value (Times are PST for temperature in C)
2010,01,23,00,00,4.20
2010,01,23,00,01,4.20
2010,01,23,00,02,4.20
2010,01,23,00,03,4.20
2010,01,23,00,04,4.20
2010,01,23,00,05,4.20
2010,01,23,00,06,4.20
2010,01,23,00,07,4.20
2010,01,23,00,08,4.20
2010,01,23,00,09,4.20
2010,01,23,00,10,4.30
2010,01,23,00,11,4.30
2010,01,23,00,12,4.30
2010,01,23,00,13,4.30
2010,01,23,00,14,4.30
2010,01,23,00,15,4.30
2010,01,23,00,16,4.30
2010,01,23,00,17,4.20
2010,01,23,00,18,4.20
2010,01,23,00,19,4.20
2010,01,23,00,20,4.20
2010,01,23,00,21,4.20
2010,01,23,00,22,4.10
2010,01,23,00,23,4.10
2010,01,23,00,24,4.10
2010,01,23,00,25,4.00
2010,01,23,00,26,4.00
2010,01,23,00,27,4.00
2010,01,23,00,28,4.00
2010,01,23,00,29,3.90
2010,01,23,00,30,3.90
2010,01,23,00,31,3.90
2010,01,23,00,32,3.80
2010,01,23,00,33,3.80
2010,01,23,00,34,3.80
2010,01,23,00,35,3.80
2010,01,23,00,36,3.80
2010,01,23,00,37,3.80
2010,01,23,00,38,3.80
2010,01,23,00,39,3.80
2010,01,23,00,40,3.80
2010,01,23,00,41,3.80
2010,01,23,00,42,3.80
2010,01,23,00,43,3.80
2010,01,23,00,44,3.80
2010,01,23,00,45,3.80
2010,01,23,00,46,3.80
2010,01,23,00,47,3.80
2010,01,23,00,48,3.80
2010,01,23,00,49,3.80
2010,01,23,00,50,3.70
2010,01,23,00,51,3.70
2010,01,23,00,52,3.70
2010,01,23,00,53,3.70
2010,01,23,00,54,3.70
2010,01,23,00,55,3.70
2010,01,23,00,56,3.70
2010,01,23,00,57,3.70
2010,01,23,00,58,3.70
2010,01,23,00,59,3.80
2010,01,23,01,00,3.70
2010,01,23,01,01,3.70
2010,01,23,01,02,3.70
2010,01,23,01,03,3.70
2010,01,23,01,04,3.70
2010,01,23,01,05,3.70
2010,01,23,01,06,3.70
2010,01,23,01,07,3.60
2010,01,23,01,08,3.60
2010,01,23,01,09,3.60
2010,01,23,01,10,3.60
2010,01,23,01,11,3.60
2010,01,23,01,12,3.60
2010,01,23,01,13,3.60
2010,01,23,01,14,3.60
2010,01,23,01,15,3.60
2010,01,23,01,16,3.60
2010,01,23,01,17,3.60
2010,01,23,01,18,3.50
2010,01,23,01,19,3.50
2010,01,23,01,20,3.50
2010,01,23,01,21,3.50
2010,01,23,01,22,3.50
2010,01,23,01,23,3.50
2010,01,23,01,24,3.40
2010,01,23,01,25,3.40
2010,01,23,01,26,3.40
2010,01,23,01,27,3.40
2010,01,23,01,28,3.30
2010,01,23,01,29,3.30
2010,01,23,01,30,3.30
2010,01,23,01,31,3.30
2010,01,23,01,32,3.30
2010,01,23,01,33,3.30
2010,01,23,01,34,3.30
2010,01,23,01,35,3.30
2010,01,23,01,36,3.30
2010,01,23,01,37,3.30
2010,01,23,01,38,3.30
2010,01,23,01,39,3.30
2010,01,23,01,40,3.30
2010,01,23,01,41,3.30
2010,01,23,01,42,3.30
2010,01,23,01,43,3.30
2010,01,23,01,44,3.30
2010,01,23,01,45,3.30
2010,01,23,01,46,3.30
2010,01,23,01,47,3.30
2010,01,23,01,48,3.30
2010,01,23,01,49,3.30
2010,01,23,01,50,3.30
2010,01,23,01,51,3.30
2010,01,23,01,52,3.30
2010,01,23,01,53,3.30
2010,01,23,01,54,3.20
2010,01,23,01,55,3.20
2010,01,23,01,56,3.30
2010,01,23,01,57,3.30
2010,01,23,01,58,3.30
2010,01,23,01,59,3.30
2010,01,23,02,00,3.30
2010,01,23,02,01,3.30
2010,01,23,02,02,3.30
2010,01,23,02,03,3.30
2010,01,23,02,04,3.40
2010,01,23,02,05,3.40
2010,01,23,02,06,3.30
2010,01,23,02,07,3.30
2010,01,23,02,08,3.30
2010,01,23,02,09,3.30
2010,01,23,02,10,3.30
2010,01,23,02,11,3.30
2010,01,23,02,12,3.20
2010,01,23,02,13,3.20
2010,01,23,02,14,3.10
2010,01,23,02,15,3.10
2010,01,23,02,16,3.10
2010,01,23,02,17,3.10
2010,01,23,02,18,3.10
2010,01,23,02,19,3.10
2010,01,23,02,20,3.10
2010,01,23,02,21,3.10
2010,01,23,02,22,2.90
2010,01,23,02,23,2.90
2010,01,23,02,24,2.90
2010,01,23,02,25,2.90
2010,01,23,02,26,2.90
2010,01,23,02,27,2.90
2010,01,23,02,28,2.90
2010,01,23,02,29,2.90
2010,01,23,02,30,2.90
2010,01,23,02,31,2.90
2010,01,23,02,32,2.90
2010,01,23,02,33,2.90
2010,01,23,02,34,2.90
2010,01,23,02,35,2.90
2010,01,23,02,36,2.90
2010,01,23,02,37,2.90
2010,01,23,02,38,3.00
2010,01,23,02,39,3.10
2010,01,23,02,40,3.10
2010,01,23,02,41,3.10
2010,01,23,02,42,3.10
2010,01,23,02,43,3.10
2010,01,23,02,44,3.10
2010,01,23,02,45,3.10
2010,01,23,02,46,3.10
2010,01,23,02,47,3.10
2010,01,23,02,48,3.10
2010,01,23,02,49,3.10
2010,01,23,02,50,3.10
2010,01,23,02,51,3.10
2010,01,23,02,52,3.10
2010,01,23,02,53,3.00
2010,01,23,02,54,2.90
2010,01,23,02,55,2.90
2010,01,23,02,56,2.90
2010,01,23,02,57,2.90
2010,01,23,02,58,2.90
2010,01,23,02,59,2.90
2010,01,23,03,00,2.90
2010,01,23,03,01,2.90
2010,01,23,03,02,2.90
2010,01,23,03,03,2.90
2010,01,23,03,04,2.90
2010,01,23,03,05,3.00
2010,01,23,03,06,3.10
2010,01,23,03,07,3.20
2010,01,23,03,08,3.20
2010,01,23,03,09,3.20
2010,01,23,03,10,3.20
2010,01,23,03,11,3.20
2010,01,23,03,12,3.20
2010,01,23,03,13,3.20
2010,01,23,03,14,3.20
2010,01,23,03,15,3.10
2010,01,23,03,16,3.10
2010,01,23,03,17,3.10
2010,01,23,03,18,3.10
2010,01,23,03,19,3.10
2010,01,23,03,20,3.10
2010,01,23,03,21,3.10
2010,01,23,03,22,3.10
2010,01,23,03,23,3.00
2010,01,23,03,24,2.90
2010,01,23,03,25,2.90
2010,01,23,03,26,2.90
2010,01,23,03,27,2.90
2010,01,23,03,28,2.90
2010,01,23,03,29,2.90
2010,01,23,03,30,2.90
2010,01,23,03,31,2.90
2010,01,23,03,32,2.90
2010,01,23,03,33,2.90
2010,01,23,03,34,2.90
2010,01,23,03,35,2.90
2010,01,23,03,36,2.90
2010,01,23,03,37,2.90
2010,01,23,03,38,2.90
2010,01,23,03,39,2.90
2010,01,23,03,40,2.90
2010,01,23,03,41,2.90
2010,01,23,03,42,2.90
2010,01,23,03,43,2.90
2010,01,23,03,44,2.90
2010,01,23,03,45,2.90
2010,01,23,03,46,2.90
2010,01,23,03,47,2.90
2010,01,23,03,48,2.90
2010,01,23,03,49,2.90
2010,01,23,03,50,2.90
2010,01,23,03,51,2.90
2010,01,23,03,52,2.90
2010,01,23,03,53,2.90
2010,01,23,03,54,2.90
2010,01,23,03,55,2.90
2010,01,23,03,56,2.90
2010,01,23,03,57,2.90
2010,01,23,03,58,2.90
2010,01,23,03,59,2.90
2010,01,23,04,00,2.90
2010,01,23,04,01,2.90
2010,01,23,04,02,2.90
2010,01,23,04,03,2.90
2010,01,23,04,04,2.90
2010,01,23,04,05,3.00
2010,01,23,04,06,3.10
2010,01,23,04,07,3.10
2010,01,23,04,08,3.10
2010,01,23,04,09,3.10
2010,01,23,04,10,3.20
2010,01,23,04,11,3.20
2010,01,23,04,12,3.20
2010,01,23,04,13,3.30
2010,01,23,04,14,3.30
2010,01,23,04,15,3.30
2010,01,23,04,16,3.30
2010,01,23,04,17,3.40
2010,01,23,04,18,3.40
2010,01,23,04,19,3.50
2010,01,23,04,20,3.50
2010,01,23,04,21,3.60
2010,01,23,04,22,3.60
2010,01,23,04,23,3.60
2010,01,23,04,24,3.60
2010,01,23,04,25,3.70
2010,01,23,04,26,3.70
2010,01,23,04,27,3.70
2010,01,23,04,28,3.70
2010,01,23,04,29,3.70
2010,01,23,04,30,3.80
2010,01,23,04,31,3.80
2010,01,23,04,32,3.80
2010,01,23,04,33,3.90
2010,01,23,04,34,3.90
2010,01,23,04,35,3.90
2010,01,23,04,36,4.00
2010,01,23,04,37,4.00
2010,01,23,04,38,4.00
2010,01,23,04,39,4.00
2010,01,23,04,40,4.00
2010,01,23,04,41,4.00
2010,01,23,04,42,4.00
2010,01,23,04,43,4.00
2010,01,23,04,44,4.10
2010,01,23,04,45,4.10
2010,01,23,04,46,4.10
2010,01,23,04,47,4.10
2010,01,23,04,48,4.10
2010,01,23,04,49,4.10
2010,01,23,04,50,4.10
2010,01,23,04,51,4.00
2010,01,23,04,52,4.00
2010,01,23,04,53,4.00
2010,01,23,04,54,4.00
2010,01,23,04,55,4.00
2010,01,23,04,56,4.00
2010,01,23,04,57,4.00
2010,01,23,04,58,4.00
2010,01,23,04,59,4.00
2010,01,23,05,00,4.00
2010,01,23,05,01,4.00
2010,01,23,05,02,4.00
2010,01,23,05,03,4.00
2010,01,23,05,04,4.00
2010,01,23,05,05,4.00
2010,01,23,05,06,4.00
2010,01,23,05,07,4.10
2010,01,23,05,08,4.10
2010,01,23,05,09,4.10
2010,01,23,05,10,4.10
2010,01,23,05,11,4.10
2010,01,23,05,12,4.10
2010,01,23,05,13,4.10
2010,01,23,05,14,4.10
2010,01,23,05,15,4.10
2010,01,23,05,16,4.10
2010,01,23,05,17,4.10
2010,01,23,05,18,4.10
2010,01,23,05,19,4.10
2010,01,23,05,20,4.10
2010,01,23,05,21,4.10
2010,01,23,05,22,4.10
2010,01,23,05,23,4.10
2010,01,23,05,24,4.10
2010,01,23,05,25,4.10
2010,01,23,05,26,4.20
2010,01,23,05,27,4.20
2010,01,23,05,28,4.20
2010,01,23,05,29,4.20
2010,01,23,05,30,4.20
2010,01,23,05,31,4.20
2010,01,23,05,32,4.20
2010,01,23,05,33,4.20
2010,01,23,05,34,4.20
2010,01,23,05,35,4.20
2010,01,23,05,36,4.20
2010,01,23,05,37,4.20
2010,01,23,05,38,4.20
2010,01,23,05,39,4.20
2010,01,23,05,40,4.20
2010,01,23,05,41,4.20
2010,01,23,05,42,4.20
2010,01,23,05,43,4.20
2010,01,23,05,44,4.20
2010,01,23,05,45,4.20
2010,01,23,05,46,4.20
2010,01,23,05,47,4.20
2010,01,23,05,48,4.20
2010,01,23,05,49,4.20
2010,01,23,05,50,4.20
2010,01,23,05,51,4.20
2010,01,23,05,52,4.20
2010,01,23,05,53,4.20
2010,01,23,05,54,4.20
2010,01,23,05,55,4.20
2010,01,23,05,56,4.20
2010,01,23,05,57,4.20
2010,01,23,05,58,4.20
2010,01,23,05,59,4.20
2010,01,23,06,00,4.20
2010,01,23,06,01,4.30
2010,01,23,06,02,4.30
2010,01,23,06,03,4.30
2010,01,23,06,04,4.30
2010,01,23,06,05,4.30
2010,01,23,06,06,4.30
2010,01,23,06,07,4.30
2010,01,23,06,08,4.30
2010,01,23,06,09,4.30
2010,01,23,06,10,4.30
2010,01,23,06,11,4.30
2010,01,23,06,12,4.30
2010,01,23,06,13,4.30
2010,01,23,06,14,4.40
2010,01,23,06,15,4.60
2010,01,23,06,16,4.70
2010,01,23,06,17,4.80
2010,01,23,06,18,4.90
2010,01,23,06,19,5.00
2010,01,23,06,20,5.10
2010,01,23,06,21,5.10
2010,01,23,06,22,5.10
2010,01,23,06,23,5.10
2010,01,23,06,24,5.10
2010,01,23,06,25,5.10
2010,01,23,06,26,5.10
2010,01,23,06,27,5.10
2010,01,23,06,28,5.20
2010,01,23,06,29,5.20
2010,01,23,06,30,5.20
2010,01,23,06,31,5.10
2010,01,23,06,32,5.10
2010,01,23,06,33,5.10
2010,01,23,06,34,5.10
2010,01,23,06,35,5.00
2010,01,23,06,36,4.90
2010,01,23,06,37,4.90
2010,01,23,06,38,4.90
2010,01,23,06,39,4.80
2010,01,23,06,40,4.80
2010,01,23,06,41,4.70
2010,01,23,06,42,4.70
2010,01,23,06,43,4.70
2010,01,23,06,44,4.70
2010,01,23,06,45,4.60
2010,01,23,06,46,4.60
2010,01,23,06,47,4.60
2010,01,23,06,48,4.60
2010,01,23,06,49,4.60
2010,01,23,06,50,4.60
2010,01,23,06,51,4.50
2010,01,23,06,52,4.50
2010,01,23,06,53,4.50
2010,01,23,06,54,4.50
2010,01,23,06,55,4.50
2010,01,23,06,56,4.50
2010,01,23,06,57,4.60
2010,01,23,06,58,4.50
2010,01,23,06,59,4.50
2010,01,23,07,00,4.50
2010,01,23,07,01,4.50
2010,01,23,07,02,4.60
2010,01,23,07,03,4.60
2010,01,23,07,04,4.60
2010,01,23,07,05,4.60
2010,01,23,07,06,4.60
2010,01,23,07,07,4.60
2010,01,23,07,08,4.60
2010,01,23,07,09,4.60
2010,01,23,07,10,4.60
2010,01,23,07,11,4.60
2010,01,23,07,12,4.70
2010,01,23,07,13,4.70
2010,01,23,07,14,4.70
2010,01,23,07,15,4.70
2010,01,23,07,16,4.80
2010,01,23,07,17,4.80
2010,01,23,07,18,4.80
2010,01,23,07,19,4.90
2010,01,23,07,20,4.90
2010,01,23,07,21,4.90
2010,01,23,07,22,4.90
2010,01,23,07,23,5.00
2010,01,23,07,24,5.10
2010,01,23,07,25,5.10
2010,01,23,07,26,5.10
2010,01,23,07,27,5.10
2010,01,23,07,28,5.10
2010,01,23,07,29,5.10
2010,01,23,07,30,5.10
2010,01,23,07,31,5.10
2010,01,23,07,32,5.10
2010,01,23,07,33,5.10
2010,01,23,07,34,5.10
2010,01,23,07,35,5.10
2010,01,23,07,36,5.10
2010,01,23,07,37,5.10
2010,01,23,07,38,5.20
2010,01,23,07,39,5.20
2010,01,23,07,40,5.20
2010,01,23,07,41,5.20
2010,01,23,07,42,5.30
2010,01,23,07,43,5.30
2010,01,23,07,44,5.30
2010,01,23,07,45,5.30
2010,01,23,07,46,5.30
2010,01,23,07,47,5.30
2010,01,23,07,48,5.30
2010,01,23,07,49,5.30
2010,01,23,07,50,5.30
2010,01,23,07,51,5.30
2010,01,23,07,52,5.30
2010,01,23,07,53,5.30
2010,01,23,07,54,5.30
2010,01,23,07,55,5.30
2010,01,23,07,56,5.30
2010,01,23,07,57,5.30
2010,01,23,07,58,5.30
2010,01,23,07,59,5.30
2010,01,23,08,00,5.30
2010,01,23,08,01,5.30
2010,01,23,08,02,5.30
2010,01,23,08,03,5.30
2010,01,23,08,04,5.30
2010,01,23,08,05,5.30
2010,01,23,08,06,5.30
2010,01,23,08,07,5.30
2010,01,23,08,08,5.30
2010,01,23,08,09,5.30
2010,01,23,08,10,5.30
2010,01,23,08,11,5.30
2010,01,23,08,12,5.30
2010,01,23,08,13,5.30
2010,01,23,08,14,5.30
2010,01,23,08,15,5.30
2010,01,23,08,16,5.30
2010,01,23,08,17,5.30
2010,01,23,08,18,5.30
2010,01,23,08,19,5.30
2010,01,23,08,20,5.30
2010,01,23,08,21,5.30
2010,01,23,08,22,5.20
2010,01,23,08,23,5.20
2010,01,23,08,24,5.20
2010,01,23,08,25,5.20
2010,01,23,08,26,5.20
2010,01,23,08,27,5.20
2010,01,23,08,28,5.20
2010,01,23,08,29,5.20
2010,01,23,08,30,5.20
2010,01,23,08,31,5.20
2010,01,23,08,32,5.20
2010,01,23,08,33,5.20
2010,01,23,08,34,5.20
2010,01,23,08,35,5.20
2010,01,23,08,36,5.30
2010,01,23,08,37,5.30
2010,01,23,08,38,5.30
2010,01,23,08,39,5.30
2010,01,23,08,40,5.30
2010,01,23,08,41,5.30
2010,01,23,08,42,5.30
2010,01,23,08,43,5.30
2010,01,23,08,44,5.30
2010,01,23,08,45,5.30
2010,01,23,08,46,5.30
2010,01,23,08,47,5.30
2010,01,23,08,48,5.30
2010,01,23,08,49,5.30
2010,01,23,08,50,5.30
2010,01,23,08,51,5.30
2010,01,23,08,52,5.40
2010,01,23,08,53,5.40
2010,01,23,08,54,5.50
2010,01,23,08,55,5.50
2010,01,23,08,56,5.50
2010,01,23,08,57,5.50
2010,01,23,08,58,5.50
2010,01,23,08,59,5.50
2010,01,23,09,00,5.50
2010,01,23,09,01,5.50
2010,01,23,09,02,5.50
2010,01,23,09,03,5.50
2010,01,23,09,04,5.50
2010,01,23,09,05,5.50
2010,01,23,09,06,5.60
2010,01,23,09,07,5.60
2010,01,23,09,08,5.60
2010,01,23,09,09,5.70
2010,01,23,09,10,5.70
2010,01,23,09,11,5.70
2010,01,23,09,12,5.80
2010,01,23,09,13,5.80
2010,01,23,09,14,5.90
2010,01,23,09,15,5.90
2010,01,23,09,16,6.00
2010,01,23,09,17,6.00
2010,01,23,09,18,6.10
2010,01,23,09,19,6.10
2010,01,23,09,20,6.20
2010,01,23,09,21,6.20
2010,01,23,09,22,6.20
2010,01,23,09,23,6.30
2010,01,23,09,24,6.40
2010,01,23,09,25,6.40
2010,01,23,09,26,6.40
2010,01,23,09,27,6.50
2010,01,23,09,28,6.60
2010,01,23,09,29,6.60
2010,01,23,09,30,6.70
2010,01,23,09,31,6.70
2010,01,23,09,32,6.80
2010,01,23,09,33,6.90
2010,01,23,09,34,6.90
2010,01,23,09,35,6.90
2010,01,23,09,36,7.00
2010,01,23,09,37,7.00
2010,01,23,09,38,7.00
2010,01,23,09,39,7.10
2010,01,23,09,40,7.10
2010,01,23,09,41,7.20
2010,01,23,09,42,7.20
2010,01,23,09,43,7.20
2010,01,23,09,44,7.20
2010,01,23,09,45,7.20
2010,01,23,09,46,7.20
2010,01,23,09,47,7.20
2010,01,23,09,48,7.30
2010,01,23,09,49,7.30
2010,01,23,09,50,7.30
2010,01,23,09,51,7.30
2010,01,23,09,52,7.40
2010,01,23,09,53,7.40
2010,01,23,09,54,7.50
2010,01,23,09,55,7.60
2010,01,23,09,56,7.70
2010,01,23,09,57,7.80
2010,01,23,09,58,7.90
2010,01,23,09,59,8.00
2010,01,23,10,00,8.10
2010,01,23,10,01,8.10
2010,01,23,10,02,8.10
2010,01,23,10,03,8.20
2010,01,23,10,04,8.20
2010,01,23,10,05,8.30
2010,01,23,10,06,8.40
2010,01,23,10,07,8.40
2010,01,23,10,08,8.50
2010,01,23,10,09,8.50
2010,01,23,10,10,8.60
2010,01,23,10,11,8.60
2010,01,23,10,12,8.60
2010,01,23,10,13,8.70
2010,01,23,10,14,8.70
2010,01,23,10,15,8.80
2010,01,23,10,16,8.80
2010,01,23,10,17,8.90
2010,01,23,10,18,9.00
2010,01,23,10,19,9.00
2010,01,23,10,20,9.00
2010,01,23,10,21,9.00
2010,01,23,10,22,9.00
2010,01,23,10,23,9.00
2010,01,23,10,24,9.00
2010,01,23,10,25,9.00
2010,01,23,10,26,8.90
2010,01,23,10,27,8.90
2010,01,23,10,28,8.90
2010,01,23,10,29,9.00
2010,01,23,10,30,9.00
2010,01,23,10,31,9.00
2010,01,23,10,32,9.00
2010,01,23,10,33,9.00
2010,01,23,10,34,9.10
2010,01,23,10,35,9.10
2010,01,23,10,36,9.20
2010,01,23,10,37,9.20
2010,01,23,10,38,9.20
2010,01,23,10,39,9.20
2010,01,23,10,40,9.30
2010,01,23,10,41,9.30
2010,01,23,10,42,9.30
2010,01,23,10,43,9.30
2010,01,23,10,44,9.30
2010,01,23,10,45,9.40
2010,01,23,10,46,9.40
2010,01,23,10,47,9.40
2010,01,23,10,48,9.50
2010,01,23,10,49,9.50
2010,01,23,10,50,9.50
2010,01,23,10,51,9.50
2010,01,23,10,52,9.40
2010,01,23,10,53,9.40
2010,01,23,10,54,9.40
2010,01,23,10,55,9.40
2010,01,23,10,56,9.40
2010,01,23,10,57,9.40
2010,01,23,10,58,9.40
2010,01,23,10,59,9.50
2010,01,23,11,00,9.50
2010,01,23,11,01,9.60
2010,01,23,11,02,9.60
2010,01,23,11,03,9.60
2010,01,23,11,04,9.60
2010,01,23,11,05,9.60
2010,01,23,11,06,9.70
2010,01,23,11,07,9.70
2010,01,23,11,08,9.70
2010,01,23,11,09,9.70
2010,01,23,11,10,9.70
2010,01,23,11,11,9.70
2010,01,23,11,12,9.80
2010,01,23,11,13,9.90
2010,01,23,11,14,9.90
2010,01,23,11,15,9.90
2010,01,23,11,16,9.90
2010,01,23,11,17,9.90
2010,01,23,11,18,9.90
2010,01,23,11,19,9.80
2010,01,23,11,20,9.80
2010,01,23,11,21,9.80
2010,01,23,11,22,9.80
2010,01,23,11,23,9.80
2010,01,23,11,24,9.90
2010,01,23,11,25,9.90
2010,01,23,11,26,9.90
2010,01,23,11,27,9.90
2010,01,23,11,28,9.80
2010,01,23,11,29,9.80
2010,01,23,11,30,9.80
2010,01,23,11,31,9.80
2010,01,23,11,32,9.70
2010,01,23,11,33,9.70
2010,01,23,11,34,9.70
2010,01,23,11,35,9.70
2010,01,23,11,36,9.70
2010,01,23,11,37,9.70
2010,01,23,11,38,9.70
2010,01,23,11,39,9.70
2010,01,23,11,40,9.70
2010,01,23,11,41,9.70
2010,01,23,11,42,9.70
2010,01,23,11,43,9.80
2010,01,23,11,44,9.80
2010,01,23,11,45,9.80
2010,01,23,11,46,9.80
2010,01,23,11,47,9.80
2010,01,23,11,48,9.80
2010,01,23,11,49,9.80
2010,01,23,11,50,9.80
2010,01,23,11,51,9.80
2010,01,23,11,52,9.80
2010,01,23,11,53,9.80
2010,01,23,11,54,9.80
2010,01,23,11,55,9.80
2010,01,23,11,56,9.80
2010,01,23,11,57,9.80
2010,01,23,11,58,9.80
2010,01,23,11,59,9.90
2010,01,23,12,00,9.90
2010,01,23,12,01,9.90
2010,01,23,12,02,9.90
2010,01,23,12,03,9.90
2010,01,23,12,04,9.90
2010,01,23,12,05,9.90
2010,01,23,12,06,9.90
2010,01,23,12,07,9.90
2010,01,23,12,08,9.90
2010,01,23,12,09,9.90
2010,01,23,12,10,9.90
2010,01,23,12,11,9.90
2010,01,23,12,12,9.90
2010,01,23,12,13,9.90
2010,01,23,12,14,9.90
2010,01,23,12,15,10.00
2010,01,23,12,16,10.10
2010,01,23,12,17,10.10
2010,01,23,12,18,10.20
2010,01,23,12,19,10.20
2010,01,23,12,20,10.20
2010,01,23,12,21,10.20
2010,01,23,12,22,10.10
2010,01,23,12,23,10.10
2010,01,23,12,24,10.10
2010,01,23,12,25,10.10
2010,01,23,12,26,10.10
2010,01,23,12,27,10.20
2010,01,23,12,28,10.20
2010,01,23,12,29,10.20
2010,01,23,12,30,10.20
2010,01,23,12,31,10.20
2010,01,23,12,32,10.10
2010,01,23,12,33,10.10
2010,01,23,12,34,10.20
2010,01,23,12,35,10.10
2010,01,23,12,36,10.10
2010,01,23,12,37,10.10
2010,01,23,12,38,10.10
2010,01,23,12,39,10.10
2010,01,23,12,40,10.10
2010,01,23,12,41,10.10
2010,01,23,12,42,10.10
2010,01,23,12,43,10.10
2010,01,23,12,44,10.10
2010,01,23,12,45,10.10
2010,01,23,12,46,10.10
2010,01,23,12,47,10.10
2010,01,23,12,48,10.10
2010,01,23,12,49,10.10
2010,01,23,12,50,10.10
2010,01,23,12,51,10.10
2010,01,23,12,52,10.00
2010,01,23,12,53,9.90
2010,01,23,12,54,9.90
2010,01,23,12,55,10.00
2010,01,23,12,56,9.90
2010,01,23,12,57,9.80
2010,01,23,12,58,9.80
2010,01,23,12,59,9.80
2010,01,23,13,00,9.80
2010,01,23,13,01,10.00
2010,01,23,13,02,10.10
2010,01,23,13,03,10.20
2010,01,23,13,04,10.20
2010,01,23,13,05,10.20
2010,01,23,13,06,10.20
2010,01,23,13,07,10.20
2010,01,23,13,08,10.10
2010,01,23,13,09,10.00
2010,01,23,13,10,9.90
2010,01,23,13,11,9.80
2010,01,23,13,12,9.70
2010,01,23,13,13,9.70
2010,01,23,13,14,9.70
2010,01,23,13,15,9.80
2010,01,23,13,16,9.80
2010,01,23,13,17,9.70
2010,01,23,13,18,9.70
2010,01,23,13,19,9.70
2010,01,23,13,20,9.70
2010,01,23,13,21,9.70
2010,01,23,13,22,9.70
2010,01,23,13,23,9.70
2010,01,23,13,24,9.70
2010,01,23,13,25,9.70
2010,01,23,13,26,9.80
2010,01,23,13,27,9.80
2010,01,23,13,28,9.70
2010,01,23,13,29,9.70
2010,01,23,13,30,9.70
2010,01,23,13,31,9.70
2010,01,23,13,32,9.70
2010,01,23,13,33,9.70
2010,01,23,13,34,9.70
2010,01,23,13,35,9.70
2010,01,23,13,36,9.70
2010,01,23,13,37,9.70
2010,01,23,13,38,9.80
2010,01,23,13,39,9.80
2010,01,23,13,40,9.90
2010,01,23,13,41,9.90
2010,01,23,13,42,9.90
2010,01,23,13,43,10.00
2010,01,23,13,44,10.10
2010,01,23,13,45,10.10
2010,01,23,13,46,10.20
2010,01,23,13,47,10.30
2010,01,23,13,48,10.30
2010,01,23,13,49,10.20
2010,01,23,13,50,10.10
2010,01,23,13,51,10.10
2010,01,23,13,52,10.10
2010,01,23,13,53,10.00
2010,01,23,13,54,9.90
2010,01,23,13,55,9.90
2010,01,23,13,56,9.90
2010,01,23,13,57,9.90
2010,01,23,13,58,9.80
2010,01,23,13,59,9.90
2010,01,23,14,00,9.90
2010,01,23,14,01,9.80
2010,01,23,14,02,9.80
2010,01,23,14,03,9.80
2010,01,23,14,04,9.70
2010,01,23,14,05,9.70
2010,01,23,14,06,9.70
2010,01,23,14,07,9.80
2010,01,23,14,08,9.80
2010,01,23,14,09,9.80
2010,01,23,14,10,9.70
2010,01,23,14,11,9.70
2010,01,23,14,12,9.80
2010,01,23,14,13,9.80
2010,01,23,14,14,9.90
2010,01,23,14,15,9.80
2010,01,23,14,16,9.80
2010,01,23,14,17,9.90
2010,01,23,14,18,9.80
2010,01,23,14,19,9.80
2010,01,23,14,20,9.80
2010,01,23,14,21,9.80
2010,01,23,14,22,9.80
2010,01,23,14,23,9.80
2010,01,23,14,24,9.80
2010,01,23,14,25,9.80
2010,01,23,14,26,9.80
2010,01,23,14,27,9.80
2010,01,23,14,28,9.80
2010,01,23,14,29,9.80
2010,01,23,14,30,9.80
2010,01,23,14,31,9.90
2010,01,23,14,32,9.90
2010,01,23,14,33,9.90
2010,01,23,14,34,9.90
2010,01,23,14,35,10.00
2010,01,23,14,36,10.10
2010,01,23,14,37,10.10
2010,01,23,14,38,10.10
2010,01,23,14,39,10.10
2010,01,23,14,40,10.10
2010,01,23,14,41,10.20
2010,01,23,14,42,10.20
2010,01,23,14,43,10.30
2010,01,23,14,44,10.30
2010,01,23,14,45,10.20
2010,01,23,14,46,10.10
2010,01,23,14,47,10.00
2010,01,23,14,48,9.90
2010,01,23,14,49,9.90
2010,01,23,14,50,9.80
2010,01,23,14,51,9.80
2010,01,23,14,52,9.80
2010,01,23,14,53,9.90
2010,01,23,14,54,9.90
2010,01,23,14,55,9.90
2010,01,23,14,56,9.80
2010,01,23,14,57,9.80
2010,01,23,14,58,9.70
2010,01,23,14,59,9.70
2010,01,23,15,00,9.60
2010,01,23,15,01,9.50
2010,01,23,15,02,9.50
2010,01,23,15,03,9.50
2010,01,23,15,04,9.50
2010,01,23,15,05,9.50
2010,01,23,15,06,9.50
2010,01,23,15,07,9.40
2010,01,23,15,08,9.40
2010,01,23,15,09,9.30
2010,01,23,15,10,9.30
2010,01,23,15,11,9.30
2010,01,23,15,12,9.30
2010,01,23,15,13,9.30
2010,01,23,15,14,9.30
2010,01,23,15,15,9.30
2010,01,23,15,16,9.30
2010,01,23,15,17,9.40
2010,01,23,15,18,9.40
2010,01,23,15,19,9.40
2010,01,23,15,20,9.40
2010,01,23,15,21,9.40
2010,01,23,15,22,9.40
2010,01,23,15,23,9.40
2010,01,23,15,24,9.40
2010,01,23,15,25,9.40
2010,01,23,15,26,9.50
2010,01,23,15,27,9.50
2010,01,23,15,28,9.50
2010,01,23,15,29,9.50
2010,01,23,15,30,9.40
2010,01,23,15,31,9.40
2010,01,23,15,32,9.40
2010,01,23,15,33,9.40
2010,01,23,15,34,9.40
2010,01,23,15,35,9.50
2010,01,23,15,36,9.50
2010,01,23,15,37,9.60
2010,01,23,15,38,9.50
2010,01,23,15,39,9.50
2010,01,23,15,40,9.50
2010,01,23,15,41,9.60
2010,01,23,15,42,9.60
2010,01,23,15,43,9.60
2010,01,23,15,44,9.60
2010,01,23,15,45,9.60
2010,01,23,15,46,9.50
2010,01,23,15,47,9.50
2010,01,23,15,48,9.50
2010,01,23,15,49,9.40
2010,01,23,15,50,9.30
2010,01,23,15,51,9.30
2010,01,23,15,52,9.30
2010,01,23,15,53,9.20
2010,01,23,15,54,9.20
2010,01,23,15,55,9.20
2010,01,23,15,56,9.20
2010,01,23,15,57,9.20
2010,01,23,15,58,9.20
2010,01,23,15,59,9.20
2010,01,23,16,00,9.20
2010,01,23,16,01,9.20
2010,01,23,16,02,9.10
2010,01,23,16,03,9.20
2010,01,23,16,04,9.20
2010,01,23,16,05,9.20
2010,01,23,16,06,9.20
2010,01,23,16,07,9.10
2010,01,23,16,08,9.10
2010,01,23,16,09,9.10
2010,01,23,16,10,9.10
2010,01,23,16,11,9.10
2010,01,23,16,12,9.10
2010,01,23,16,13,9.10
2010,01,23,16,14,9.10
2010,01,23,16,15,9.10
2010,01,23,16,16,9.10
2010,01,23,16,17,9.10
2010,01,23,16,18,9.10
2010,01,23,16,19,9.10
2010,01,23,16,20,9.10
2010,01,23,16,21,9.10
2010,01,23,16,22,9.10
2010,01,23,16,23,9.00
2010,01,23,16,24,9.00
2010,01,23,16,25,9.00
2010,01,23,16,26,9.00
2010,01,23,16,27,8.90
2010,01,23,16,28,8.90
2010,01,23,16,29,8.90
2010,01,23,16,30,8.80
2010,01,23,16,31,8.80
2010,01,23,16,32,8.70
2010,01,23,16,33,8.70
2010,01,23,16,34,8.70
2010,01,23,16,35,8.70
2010,01,23,16,36,8.70
2010,01,23,16,37,8.70
2010,01,23,16,38,8.60
2010,01,23,16,39,8.60
2010,01,23,16,40,8.50
2010,01,23,16,41,8.50
2010,01,23,16,42,8.50
2010,01,23,16,43,8.50
2010,01,23,16,44,8.40
2010,01,23,16,45,8.40
2010,01,23,16,46,8.40
2010,01,23,16,47,8.30
2010,01,23,16,48,8.30
2010,01,23,16,49,8.30
2010,01,23,16,50,8.20
2010,01,23,16,51,8.20
2010,01,23,16,52,8.20
2010,01,23,16,53,8.20
2010,01,23,16,54,8.10
2010,01,23,16,55,8.10
2010,01,23,16,56,8.10
2010,01,23,16,57,8.00
2010,01,23,16,58,8.00
2010,01,23,16,59,8.00
2010,01,23,17,00,8.00
2010,01,23,17,01,7.90
2010,01,23,17,02,7.90
2010,01,23,17,03,7.90
2010,01,23,17,04,7.90
2010,01,23,17,05,7.90
2010,01,23,17,06,7.80
2010,01,23,17,07,7.80
2010,01,23,17,08,7.80
2010,01,23,17,09,7.80
2010,01,23,17,10,7.80
2010,01,23,17,11,7.80
2010,01,23,17,12,7.80
2010,01,23,17,13,7.80
2010,01,23,17,14,7.80
2010,01,23,17,15,7.80
2010,01,23,17,16,7.80
2010,01,23,17,17,7.80
2010,01,23,17,18,7.80
2010,01,23,17,19,7.80
2010,01,23,17,20,7.70
2010,01,23,17,21,7.70
2010,01,23,17,22,7.70
2010,01,23,17,23,7.70
2010,01,23,17,24,7.70
2010,01,23,17,25,7.70
2010,01,23,17,26,7.60
2010,01,23,17,27,7.60
2010,01,23,17,28,7.60
2010,01,23,17,29,7.60
2010,01,23,17,30,7.60
2010,01,23,17,31,7.50
2010,01,23,17,32,7.50
2010,01,23,17,33,7.50
2010,01,23,17,34,7.50
2010,01,23,17,35,7.50
2010,01,23,17,36,7.50
2010,01,23,17,37,7.50
2010,01,23,17,38,7.50
2010,01,23,17,39,7.50
2010,01,23,17,40,7.40
2010,01,23,17,41,7.40
2010,01,23,17,42,7.40
2010,01,23,17,43,7.40
2010,01,23,17,44,7.40
2010,01,23,17,45,7.30
2010,01,23,17,46,7.30
2010,01,23,17,47,7.30
2010,01,23,17,48,7.30
2010,01,23,17,49,7.30
2010,01,23,17,50,7.30
2010,01,23,17,51,7.30
2010,01,23,17,52,7.30
2010,01,23,17,53,7.30
2010,01,23,17,54,7.30
2010,01,23,17,55,7.30
2010,01,23,17,56,7.30
2010,01,23,17,57,7.30
2010,01,23,17,58,7.30
2010,01,23,17,59,7.20
2010,01,23,18,00,7.20
2010,01,23,18,01,7.20
2010,01,23,18,02,7.20
2010,01,23,18,03,7.20